Date,TemperatureHighF,TemperatureAvgF,TemperatureLowF,DewpointHighF,DewpointAvgF,DewpointLowF,HumidityHigh,HumidityAvg,HumidityLow,PressureMaxIn,PressureMinIn,WindSpeedMaxMPH,WindSpeedAvgMPH,GustSpeedMaxMPH,PrecipitationSumIn
2013-1-1,36,36,36,31,31,31,84,84,84,30.31,30.31,2,2,2,0.00
2013-1-2,36,34,27,31,30,26,97,87,84,30.31,30.17,3,2,3,0.00
2013-1-3,46,34,25,41,31,24,97,89,72,30.18,30.08,17,1,17,0.02
2013-1-4,52,45,40,44,41,38,95,86,70,30.30,30.13,11,1,11,0.00
2013-1-5,46,42,38,41,39,36,97,87,68,30.19,30.09,14,1,14,0.05
2013-1-6,46,42,37,39,37,35,95,85,70,30.18,29.95,11,1,11,0.27
2013-1-7,50,45,41,47,42,39,95,89,85,30.17,29.84,15,2,15,0.17
2013-1-8,53,47,40,47,43,38,95,86,70,30.17,29.74,19,2,19,0.05
2013-1-9,53,39,32,44,35,29,97,88,65,29.94,29.66,25,1,25,0.73
2013-1-10,36,33,31,34,31,28,98,92,83,30.10,29.93,10,1,10,0.02
2013-1-11,35,30,26,32,27,23,99,91,68,30.31,30.09,4,0,4,0.04
2013-1-12,34,27,22,27,23,20,95,87,68,30.43,30.29,7,0,7,0.01
2013-1-13,34,27,22,27,23,20,98,87,68,30.49,30.41,6,0,6,0.00
2013-1-14,37,30,23,30,26,21,95,87,73,30.56,30.45,3,0,3,0.00
2013-1-15,40,31,24,35,28,23,96,92,77,30.67,30.55,6,0,6,0.01
2013-1-16,43,31,26,36,29,25,98,92,74,30.65,30.48,4,0,4,0.01
2013-1-17,49,33,26,40,31,25,98,92,70,30.50,30.26,5,0,5,0.00
2013-1-18,48,38,26,39,32,25,98,78,52,30.30,30.23,7,1,7,0.01
2013-1-19,38,28,22,34,27,21,97,95,86,30.36,30.30,4,0,4,0.01
2013-1-20,38,28,21,35,26,20,97,95,86,30.38,30.24,4,0,4,0.00
2013-1-21,42,28,19,37,26,18,98,94,81,30.26,30.12,5,0,5,0.01
2013-1-22,40,33,25,36,30,23,97,91,79,30.12,29.90,4,0,4,0.01
2013-1-23,44,41,36,41,36,32,95,85,69,30.15,29.84,7,0,7,0.13
2013-1-24,48,40,32,43,37,30,97,88,66,30.19,30.03,12,1,12,0.15
2013-1-25,51,45,34,46,42,32,97,90,83,30.05,29.90,10,1,10,0.02
2013-1-26,44,39,33,40,36,32,97,89,80,30.03,29.85,7,0,9,0.06
2013-1-27,42,38,36,38,36,35,96,93,84,30.07,29.99,5,0,5,0.15
2013-1-28,40,38,36,39,37,35,97,94,90,30.11,30.00,14,1,14,0.67
2013-1-29,45,43,40,44,42,39,97,95,92,30.39,30.11,12,1,12,0.26
2013-1-30,47,44,41,46,43,40,98,97,95,30.39,30.33,6,0,6,0.78
2013-1-31,48,45,43,46,43,40,98,93,77,30.41,30.30,9,1,9,0.06
2013-2-1,50,43,36,44,40,35,97,91,76,30.38,30.32,6,1,8,0.00
2013-2-2,43,35,31,40,34,30,100,96,91,30.35,30.23,4,0,4,0.01
2013-2-3,46,40,32,41,37,30,97,91,80,30.30,30.21,5,0,5,0.00
2013-2-4,50,43,36,44,40,35,98,90,77,30.21,29.87,9,0,9,0.00
2013-2-5,48,44,37,43,40,36,97,87,73,29.97,29.83,21,1,21,0.18
2013-2-6,48,44,40,42,39,35,95,83,62,30.05,29.77,12,1,12,0.03
2013-2-7,46,39,30,40,34,29,96,86,59,30.16,29.78,17,0,17,0.13
2013-2-8,43,35,28,37,32,27,98,89,69,30.29,30.16,10,1,10,0.01
2013-2-9,43,38,33,38,35,32,97,91,81,30.33,30.24,5,0,5,0.00
2013-2-10,43,39,36,38,36,35,97,89,75,30.35,30.30,6,0,6,0.00
2013-2-11,46,41,34,43,38,33,100,91,73,30.35,30.31,7,0,7,0.03
2013-2-12,49,45,42,46,43,40,97,92,84,30.42,30.33,10,0,10,0.02
2013-2-13,48,44,41,43,41,39,96,90,78,30.50,30.34,14,1,14,0.07
2013-2-14,49,43,38,45,41,36,96,92,86,30.54,30.49,5,0,5,0.02
2013-2-15,55,43,35,47,40,34,100,89,74,30.52,30.16,6,1,6,0.00
2013-2-16,46,42,37,44,39,35,97,89,79,30.22,30.14,21,2,21,0.11
2013-2-17,44,40,35,36,34,32,92,81,65,30.24,30.09,11,1,11,0.00
2013-2-18,45,39,34,36,33,31,92,79,65,30.09,29.72,7,0,8,0.00
2013-2-19,48,39,31,37,33,29,95,80,55,30.00,29.70,10,1,10,0.00
2013-2-20,45,38,30,39,34,28,96,87,65,30.04,29.97,9,0,9,0.02
2013-2-21,42,39,35,38,36,33,94,89,84,30.10,30.00,13,1,13,0.08
2013-2-22,44,40,34,40,37,33,97,91,82,30.09,29.73,29,2,29,0.34
2013-2-23,44,39,35,37,34,32,94,82,72,30.39,29.95,22,4,22,0.02
2013-2-24,48,42,36,37,34,30,92,76,58,30.39,29.94,14,1,14,0.00
2013-2-25,44,39,35,40,36,32,95,88,80,30.32,29.90,26,3,26,0.28
2013-2-26,46,40,34,35,33,31,90,76,56,30.35,30.18,14,1,14,0.00
2013-2-27,52,44,39,42,39,34,97,83,63,30.28,30.19,12,1,12,0.06
2013-2-28,52,47,42,50,45,40,98,94,86,30.35,30.16,8,1,8,0.42
2013-3-1,57,53,50,50,48,45,94,83,75,30.37,30.27,11,1,11,0.02
2013-3-2,55,47,37,46,42,32,93,83,68,30.28,30.07,24,2,24,0.06
2013-3-3,48,39,33,36,32,29,92,78,49,30.28,30.19,11,1,11,0.00
2013-3-4,55,40,30,33,28,20,91,64,28,30.27,29.88,14,1,14,0.00
2013-3-5,46,42,36,40,34,24,95,75,46,29.88,29.69,9,0,9,0.00
2013-3-6,42,39,38,40,38,37,98,96,92,29.90,29.55,4,0,4,0.32
2013-3-7,50,42,34,41,38,33,97,84,59,30.07,29.90,10,1,10,0.01
2013-3-8,52,39,29,41,35,28,98,87,63,30.23,30.04,10,1,10,0.01
2013-3-9,57,42,31,40,34,29,100,76,41,30.50,30.22,12,1,12,0.01
2013-3-10,43,40,34,42,38,31,97,93,88,30.49,30.41,5,0,5,0.12
2013-3-11,49,45,41,46,43,41,98,96,91,30.44,30.18,4,0,4,0.09
2013-3-12,53,49,47,49,47,46,97,93,82,30.19,30.10,13,0,13,0.37
2013-3-13,53,50,47,52,48,46,98,96,89,30.20,30.07,7,0,7,0.21
2013-3-14,49,48,48,48,48,47,98,98,98,30.08,30.03,9,0,9,0.00
2013-3-15,57,51,48,50,48,46,94,87,71,30.20,30.13,5,0,16,0.11
2013-3-16,48,43,35,46,41,33,96,92,80,30.14,29.93,21,2,25,0.40
2013-3-17,44,39,36,36,34,31,95,84,64,30.23,30.01,21,4,21,0.02
2013-3-18,49,41,34,38,34,30,94,80,51,30.23,30.18,20,2,20,0.01
2013-3-19,55,42,32,44,34,24,92,76,33,30.20,29.59,20,2,20,0.14
2013-3-20,51,44,35,47,41,33,95,88,73,30.06,29.40,32,4,32,0.53
2013-3-21,41,36,33,38,34,30,97,91,79,30.23,30.06,19,2,19,0.23
2013-3-22,45,37,31,34,31,24,100,80,46,30.37,30.22,17,2,17,0.00
2013-3-23,48,38,32,32,29,23,93,71,40,30.38,30.28,11,1,11,0.00
2013-3-24,52,42,32,37,32,27,87,71,43,30.29,30.11,10,1,10,0.00
2013-3-25,58,47,37,40,34,30,81,62,43,30.12,29.92,11,1,11,0.00
2013-3-26,57,50,44,45,41,39,90,72,54,29.99,29.93,9,1,9,0.00
2013-3-27,57,49,44,49,45,42,94,86,71,29.97,29.91,9,1,12,0.01
2013-3-28,59,50,45,49,46,43,97,85,65,30.13,29.97,7,1,7,0.04
2013-3-29,46,45,44,43,42,42,91,89,86,30.19,30.13,4,0,4,0.00
2013-3-30,45,45,45,42,42,42,90,90,90,30.19,30.19,0,0,0,0.00
2013-3-31,45,45,45,42,42,42,90,90,90,30.19,30.19,0,0,0,0.00
2013-4-1,45,45,45,42,42,42,90,90,90,30.19,30.19,0,0,0,0.00
2013-4-2,45,45,45,42,42,42,90,90,90,30.19,30.19,0,0,0,0.00
2013-4-3,45,45,45,42,42,42,90,90,90,30.19,30.19,0,0,0,0.00
2013-4-4,45,45,45,42,42,42,90,90,90,30.19,30.19,0,0,0,0.00
2013-4-5,56,51,47,52,48,44,96,89,77,29.88,29.70,8,1,17,0.36
2013-4-6,51,46,42,46,42,40,94,87,70,29.94,29.70,21,2,21,0.45
2013-4-7,46,42,38,44,40,36,97,93,87,29.90,29.44,13,1,13,0.77
2013-4-8,50,44,40,44,41,38,95,87,75,30.28,29.90,12,1,12,0.05
2013-4-9,53,47,38,47,42,37,97,83,68,30.33,30.19,5,0,5,0.00
2013-4-10,53,50,45,49,44,39,91,78,68,30.27,29.93,27,4,27,0.15
2013-4-11,53,47,40,40,38,33,86,71,48,30.29,30.17,14,2,14,0.00
2013-4-12,47,41,36,42,38,34,94,89,72,30.17,29.74,17,1,17,0.28
2013-4-13,42,39,35,40,36,32,95,89,78,30.02,29.83,19,2,19,0.28
2013-4-14,47,41,37,41,37,36,95,86,72,30.02,29.93,11,1,11,0.12
2013-4-15,53,43,36,40,37,32,96,81,46,30.17,29.93,12,1,12,0.01
2013-4-16,54,44,34,40,36,31,94,77,42,30.39,30.16,15,1,16,0.00
2013-4-17,57,46,36,41,36,32,90,70,40,30.45,30.39,12,2,12,0.00
2013-4-18,53,46,39,47,42,36,95,86,71,30.45,30.25,5,0,5,0.17
2013-4-19,52,48,46,50,47,44,97,95,84,30.25,30.07,11,1,11,1.29
2013-4-20,50,47,45,46,44,43,96,90,80,30.29,30.22,8,1,8,0.01
2013-4-21,50,50,50,46,46,46,85,85,85,30.27,30.27,1,1,4,0.01
2013-4-22,50,50,50,46,46,46,85,85,85,30.27,30.27,1,1,4,0.01
2013-4-23,50,50,50,46,46,46,85,85,85,30.27,30.27,1,1,4,0.01
2013-4-24,50,50,50,46,46,46,85,85,85,30.27,30.27,1,1,4,0.01
2013-4-25,50,50,50,46,46,46,85,85,85,30.27,30.27,1,1,4,0.01
2013-4-26,50,50,50,46,46,46,85,85,85,30.27,30.27,1,1,4,0.01
2013-4-27,50,50,50,46,46,46,85,85,85,30.27,30.27,1,1,4,0.01
2013-4-28,50,50,50,46,46,46,85,85,85,30.27,30.27,1,1,4,0.01
2013-4-29,50,50,50,46,46,46,85,85,85,30.27,30.27,1,1,4,0.01
2013-4-30,50,50,50,46,46,46,85,85,85,30.27,30.27,1,1,4,0.01
2013-5-1,50,50,50,46,46,46,85,85,85,30.27,30.27,1,1,4,0.01
2013-5-2,50,50,50,46,46,46,85,85,85,30.27,30.27,1,1,4,0.01
2013-5-3,50,50,50,46,46,46,85,85,85,30.27,30.27,1,1,4,0.01
2013-5-4,77,59,44,51,45,39,92,64,27,30.27,29.96,12,1,14,0.01
2013-5-5,80,64,46,50,44,40,86,53,26,29.96,29.73,14,1,14,0.00
2013-5-6,83,67,52,53,45,39,78,47,25,29.82,29.72,10,1,10,0.00
2013-5-7,71,57,49,56,51,47,95,80,56,30.00,29.79,11,1,11,0.00
2013-5-8,68,55,49,52,49,46,92,80,55,30.13,30.00,9,1,9,0.02
2013-5-9,73,58,46,52,48,43,92,74,44,30.20,30.09,11,2,11,0.00
2013-5-10,80,66,50,55,50,44,84,59,28,30.18,30.08,12,2,12,0.00
2013-5-11,80,66,54,60,54,49,87,66,40,30.16,29.96,9,1,9,0.00
2013-5-12,71,62,57,60,56,54,97,84,58,30.07,29.99,6,0,6,0.07
2013-5-13,65,55,43,56,51,41,97,85,55,30.20,29.93,20,1,20,0.13
2013-5-14,63,52,42,45,41,37,96,70,39,30.21,30.10,9,1,9,0.00
2013-5-15,61,51,43,52,46,40,96,83,58,30.12,30.00,6,0,6,0.03
2013-5-16,67,56,49,54,50,48,96,82,53,30.01,29.84,12,1,12,0.32
2013-5-17,59,52,50,52,50,47,98,91,65,30.07,29.94,6,0,6,0.26
2013-5-18,56,52,48,51,49,46,97,91,78,30.26,30.07,6,0,6,0.10
2013-5-19,59,52,49,53,50,47,100,93,72,30.40,30.26,7,0,7,0.18
2013-5-20,50,49,49,48,48,47,96,94,93,30.35,30.34,2,0,2,0.00
2013-5-21,50,50,50,48,48,48,93,93,93,30.35,30.35,0,0,2,0.00
2013-5-22,50,50,50,48,48,48,93,93,93,30.35,30.35,0,0,2,0.00
2013-5-23,50,50,50,48,48,48,93,93,93,30.35,30.35,0,0,2,0.00
2013-5-24,50,50,50,48,48,48,93,93,93,30.35,30.35,0,0,2,0.00
2013-5-25,50,50,50,48,48,48,93,93,93,30.35,30.35,0,0,2,0.00
2013-5-26,50,50,50,48,48,48,93,93,93,30.35,30.35,0,0,2,0.00
2013-5-27,50,50,50,48,48,48,93,93,93,30.35,30.35,0,0,2,0.00
2013-5-28,50,50,50,48,48,48,93,93,93,30.35,30.35,0,0,2,0.00
2013-5-29,50,50,50,48,48,48,93,93,93,30.35,30.35,0,0,2,0.00
2013-5-30,58,50,45,50,47,44,97,88,63,30.35,30.00,11,0,16,0.17
2013-5-31,63,54,47,49,47,45,100,80,57,30.33,30.23,7,0,7,0.00
2013-6-1,71,59,47,54,49,45,96,72,47,30.24,30.00,9,1,9,0.00
2013-6-2,65,57,49,52,49,45,93,76,51,30.07,30.02,6,0,6,0.00
2013-6-3,57,57,57,49,49,49,74,74,74,30.06,30.06,0,0,1,0.00
2013-6-4,77,62,45,58,51,44,97,72,39,30.11,29.99,5,1,11,0.00
2013-6-5,78,65,52,54,50,46,85,60,33,30.07,29.98,10,2,13,0.00
2013-6-6,79,65,52,56,50,43,87,63,33,30.03,29.97,12,1,12,0.00
2013-6-7,69,59,50,57,51,47,92,74,53,30.13,30.00,7,1,12,0.00
2013-6-8,70,59,49,54,50,47,94,75,52,30.17,30.06,11,1,11,0.00
2013-6-9,68,58,49,50,47,40,86,69,37,30.09,29.97,9,2,13,0.00
2013-6-10,65,54,46,50,47,43,94,76,53,30.01,29.87,10,1,10,0.00
2013-6-11,58,53,48,51,46,42,89,77,58,30.12,29.96,12,1,12,0.05
2013-6-12,59,52,48,51,48,45,95,85,64,30.15,30.11,12,0,12,0.06
2013-6-13,60,53,48,55,50,47,96,91,71,30.24,30.13,6,0,13,0.17
2013-6-14,64,55,49,52,49,46,96,81,61,30.25,30.03,11,1,11,0.00
2013-6-15,76,62,47,55,49,43,86,65,34,30.03,29.89,10,2,10,0.00
2013-6-16,70,61,49,59,54,48,96,79,62,30.08,29.98,9,1,9,0.00
2013-6-17,75,62,55,56,52,48,96,70,41,30.08,29.87,12,1,12,0.08
2013-6-18,67,57,51,54,51,44,98,83,47,29.96,29.87,10,0,10,0.08
2013-6-19,63,56,48,52,49,46,97,81,55,30.02,29.91,11,1,11,0.00
2013-6-20,58,54,50,53,50,48,97,88,74,30.12,29.99,10,1,10,0.22
2013-6-21,65,56,50,54,52,50,98,86,62,30.16,30.10,6,0,6,0.03
2013-6-22,76,63,49,58,53,47,95,73,51,30.12,29.84,10,1,10,0.00
2013-6-23,72,62,58,63,59,56,97,91,58,29.84,29.58,11,0,11,0.24
2013-6-24,66,59,55,58,55,52,98,88,59,29.69,29.56,10,1,10,0.34
2013-6-25,69,60,54,60,55,53,98,86,59,29.84,29.65,8,0,8,0.32
2013-6-26,70,62,54,60,56,53,97,84,57,30.03,29.83,11,0,11,0.02
2013-6-27,69,63,57,65,60,56,98,92,82,30.18,30.01,4,0,5,0.12
2013-6-28,85,71,59,69,64,58,98,79,55,30.16,30.01,6,0,11,0.00
2013-6-29,83,71,61,67,63,59,95,76,49,30.08,29.95,5,1,10,0.00
2013-6-30,89,74,60,69,63,58,95,70,43,29.98,29.82,7,1,7,0.00
2013-7-1,89,74,62,71,65,60,95,75,51,29.98,29.88,8,1,8,0.00
2013-7-2,80,68,58,65,60,56,94,78,54,30.06,29.99,7,0,7,0.00
2013-7-3,79,65,54,60,55,50,97,73,41,30.12,30.00,9,1,9,0.00
2013-7-4,67,58,50,56,52,48,97,81,65,30.11,30.02,6,0,6,0.00
2013-7-5,70,60,53,57,54,51,92,79,59,30.02,29.93,5,0,10,0.00
2013-7-6,74,60,50,59,54,49,97,81,49,29.96,29.84,7,1,7,0.00
2013-7-7,72,60,51,62,56,50,96,85,65,29.94,29.87,7,0,7,0.00
2013-7-8,76,62,52,65,56,51,97,82,55,30.08,29.94,10,1,10,0.00
2013-7-9,83,68,55,63,57,53,96,70,37,30.08,29.96,10,1,10,0.00
2013-7-10,74,61,53,58,53,48,96,77,44,30.04,29.92,9,1,9,0.00
2013-7-11,68,57,44,52,48,43,96,74,49,30.05,29.97,10,1,10,0.00
2013-7-12,66,55,46,53,50,44,96,82,56,30.10,29.99,7,0,7,0.00
2013-7-13,75,59,45,54,48,43,95,71,36,30.17,30.07,8,1,11,0.00
2013-7-14,80,65,49,55,49,41,92,61,27,30.12,29.95,7,1,11,0.00
2013-7-15,78,64,48,54,50,45,91,64,39,30.02,29.85,9,1,13,0.00
2013-7-16,79,68,53,64,57,51,91,70,48,29.88,29.76,7,0,7,0.00
2013-7-17,69,63,56,62,57,53,95,83,68,30.18,29.88,10,0,10,0.01
2013-7-18,74,62,54,61,56,52,94,81,61,30.20,30.09,9,1,9,0.00
2013-7-19,78,64,52,63,57,51,97,81,55,30.14,30.00,9,1,9,0.00
2013-7-20,75,62,54,63,57,53,96,85,63,30.07,29.93,7,1,7,0.00
2013-7-21,77,62,53,63,57,51,98,85,55,29.96,29.88,7,0,7,0.00
2013-7-22,76,61,54,62,57,53,98,86,61,30.04,29.92,6,0,6,0.02
2013-7-23,83,67,52,63,57,52,98,73,41,30.04,29.93,7,1,11,0.02
2013-7-24,83,67,53,62,56,51,95,71,39,30.02,29.96,11,1,11,0.00
2013-7-25,83,68,51,59,54,50,96,66,35,30.07,29.96,6,1,10,0.00
2013-7-26,84,67,51,58,53,49,94,64,35,30.12,30.03,7,1,10,0.00
2013-7-27,75,62,47,56,51,45,95,72,43,30.14,29.97,10,1,10,0.00
2013-7-28,69,58,48,56,52,46,100,82,60,30.01,29.94,10,1,10,0.00
2013-7-29,75,62,55,58,53,51,88,75,53,30.00,29.92,7,1,11,0.00
2013-7-30,76,62,50,60,55,49,96,81,53,30.12,29.99,8,1,8,0.00
2013-7-31,68,60,55,62,57,53,97,90,78,30.09,29.97,5,0,5,0.00
2013-8-1,63,58,53,58,55,52,98,90,79,30.07,30.01,4,0,6,0.02
2013-8-2,65,60,56,58,56,54,96,88,71,30.11,30.05,6,0,6,0.02
2013-8-3,71,62,57,62,58,56,98,88,69,30.10,30.01,7,0,7,0.05
2013-8-4,81,69,60,64,61,58,94,78,54,30.03,29.90,9,1,9,0.00
2013-8-5,83,69,56,64,59,55,97,73,40,29.98,29.89,11,1,11,0.00
2013-8-6,85,69,53,62,56,51,97,67,39,29.97,29.87,9,1,9,0.00
2013-8-7,84,68,53,60,55,51,94,66,36,29.98,29.90,10,1,10,0.00
2013-8-8,80,65,54,62,57,52,96,78,47,30.00,29.90,10,1,10,0.00
2013-8-9,80,67,54,62,58,53,97,75,43,29.93,29.81,8,0,8,0.12
2013-8-10,74,65,60,66,61,53,98,88,69,29.99,29.85,7,0,7,0.02
2013-8-11,70,63,56,61,55,51,83,77,67,30.04,29.96,7,1,7,0.00
2013-8-12,74,71,65,60,58,53,79,63,53,30.04,29.96,7,1,7,0.00
2013-8-14,81,74,62,62,58,52,89,58,41,29.91,29.87,10,2,10,0.02
2013-8-16,81,75,63,66,62,53,88,64,49,29.99,29.91,10,2,10,0.00
2013-8-17,75,68,60,62,58,54,85,72,59,30.05,29.98,10,1,10,0.00
2013-8-18,77,66,57,62,58,55,95,76,54,30.10,30.03,10,1,10,0.00
2013-8-19,76,65,54,60,56,52,95,74,52,30.09,30.02,10,1,10,0.00
2013-8-20,74,64,54,59,54,50,96,72,47,30.12,30.02,15,1,15,0.00
2013-8-21,79,64,50,58,54,48,95,71,46,30.06,29.90,9,1,9,0.00
2013-8-22,81,68,54,61,57,53,95,72,45,29.92,29.78,7,0,7,0.00
2013-8-23,74,65,57,59,57,54,93,77,55,29.87,29.81,11,1,11,0.00
2013-8-24,70,62,57,59,56,51,97,80,57,29.90,29.83,6,0,6,0.03
2013-8-25,68,60,50,60,55,48,95,83,67,29.91,29.86,6,0,6,0.00
2013-8-26,75,64,57,60,56,52,93,75,50,29.93,29.82,15,1,15,0.00
2013-8-27,77,66,58,63,59,54,97,80,57,29.92,29.76,10,1,10,0.02
2013-8-28,76,67,61,66,63,60,97,86,69,29.88,29.78,7,0,7,0.24
2013-8-29,76,66,61,67,62,60,97,89,62,30.01,29.81,14,1,14,0.81
2013-8-30,74,65,57,63,60,55,98,85,58,30.12,30.01,8,0,8,0.35
2013-8-31,80,65,51,64,56,50,98,75,45,30.05,29.81,10,1,10,0.00
2013-9-1,80,68,58,60,58,54,89,72,41,29.86,29.76,7,1,11,0.00
2013-9-2,78,66,57,62,58,54,92,76,54,29.92,29.83,7,0,10,0.01
2013-9-3,71,63,58,63,60,56,98,90,68,30.00,29.90,5,0,5,0.25
2013-9-4,68,62,56,62,59,55,97,90,78,30.02,29.96,7,0,7,0.00
2013-9-5,65,61,59,62,59,58,98,95,86,30.02,29.92,7,0,7,1.13
2013-9-6,63,59,57,62,58,57,98,97,94,30.10,29.93,4,0,8,2.05
2013-9-7,70,61,54,62,58,53,99,90,71,30.10,29.99,6,0,6,0.01
2013-9-8,77,64,54,65,59,53,100,85,61,30.08,30.00,9,1,9,0.00
2013-9-9,74,62,54,64,59,53,98,88,67,30.04,29.94,7,0,7,0.00
2013-9-10,78,65,53,65,60,52,98,85,59,29.96,29.85,8,0,8,0.01
2013-9-11,90,71,56,70,62,54,96,75,41,29.91,29.84,5,0,5,0.00
2013-9-12,76,64,56,66,60,55,98,87,66,29.96,29.88,5,0,5,0.00
2013-9-13,62,60,58,60,59,57,98,96,93,29.94,29.85,4,0,4,0.01
2013-9-14,71,62,57,64,59,56,97,90,77,29.86,29.70,5,0,5,0.00
2013-9-15,63,60,57,61,59,56,99,97,94,29.82,29.68,5,0,5,0.06
2013-9-16,64,59,56,61,58,55,98,95,84,29.93,29.81,6,0,6,0.13
2013-9-17,62,56,53,56,53,50,98,89,68,29.94,29.84,6,0,6,0.03
2013-9-18,65,56,48,52,50,47,97,82,57,30.06,29.94,8,0,8,0.01
2013-9-19,75,59,46,57,50,43,93,76,48,30.03,29.76,6,0,6,0.00
2013-9-20,72,58,48,58,52,46,96,81,51,29.76,29.58,9,0,9,0.06
2013-9-21,65,57,53,57,54,52,100,90,65,29.71,29.63,9,0,9,0.15
2013-9-22,60,55,52,53,52,48,96,89,72,29.77,29.55,14,1,14,0.11
2013-9-23,57,53,50,54,51,49,97,92,79,29.97,29.77,10,0,10,0.39
2013-9-24,58,50,46,52,48,45,98,91,70,29.96,29.82,7,0,7,0.24
2013-9-25,52,49,43,50,47,42,98,95,86,30.03,29.84,2,0,7,0.17
2013-9-26,59,49,41,51,45,40,99,87,65,30.14,30.02,7,0,7,0.01
2013-9-27,55,51,45,52,48,43,94,91,79,30.14,29.86,11,0,11,0.05
2013-9-28,60,54,50,57,53,47,98,94,87,29.86,29.37,18,1,18,1.32
2013-9-29,55,51,48,52,48,44,97,92,79,29.59,29.19,28,2,28,1.34
2013-9-30,54,49,45,51,47,44,98,92,83,29.94,29.49,19,1,19,0.83
2013-10-1,54,48,45,49,46,44,98,92,75,30.15,29.92,6,0,6,0.24
2013-10-2,51,48,44,48,45,43,97,92,87,30.16,30.04,18,0,18,0.08
2013-10-3,51,47,42,49,46,41,98,95,88,30.44,30.16,4,0,4,0.01
2013-10-4,63,49,39,53,45,38,100,86,63,30.46,30.35,5,0,5,0.01
2013-10-5,68,54,43,52,46,41,95,77,48,30.35,30.11,6,0,6,0.00
2013-10-6,78,58,43,56,43,30,95,64,20,30.12,29.89,20,1,20,0.00
2013-10-7,56,51,48,50,48,43,97,91,70,30.06,29.89,13,1,13,0.46
2013-10-8,53,47,39,47,44,38,100,90,76,30.07,29.94,16,1,16,0.44
2013-10-9,57,46,38,48,42,37,98,87,65,30.13,29.95,5,0,5,0.00
2013-10-10,56,49,43,51,46,41,97,88,63,30.07,29.93,6,0,6,0.04
2013-10-11,55,47,40,48,44,39,98,90,64,30.13,30.06,5,0,5,0.00
2013-10-12,51,48,44,48,46,43,98,94,86,30.19,30.06,4,0,4,0.14
2013-10-13,53,46,40,47,44,39,98,93,79,30.35,30.19,6,0,6,0.00
2013-10-14,58,46,37,48,42,36,97,87,65,30.41,30.34,6,0,6,0.01
2013-10-15,61,48,38,50,43,36,97,86,61,30.38,30.17,6,0,6,0.00
2013-10-16,52,46,40,48,44,39,98,94,84,30.19,30.13,8,0,8,0.01
2013-10-17,50,43,37,48,42,37,99,97,92,30.26,30.19,4,0,4,0.00
2013-10-18,59,47,39,53,45,38,99,93,78,30.24,30.13,6,0,6,0.01
2013-10-19,52,45,39,49,44,39,99,96,89,30.18,30.12,7,0,7,0.01
2013-10-20,47,42,39,46,42,38,99,98,96,30.19,30.13,3,0,3,0.00
2013-10-21,53,43,38,50,42,37,99,97,88,30.16,30.08,3,0,3,0.02
2013-10-22,60,46,36,54,44,36,99,94,78,30.11,30.01,4,0,4,0.00
2013-10-23,62,48,37,54,46,36,99,93,75,30.03,29.96,5,0,5,0.02
2013-10-24,62,47,39,54,45,38,99,93,71,30.12,30.00,6,0,6,0.01
2013-10-25,52,47,42,49,46,42,99,95,88,30.29,30.12,4,0,4,0.01
2013-10-26,48,46,44,48,44,43,100,94,89,30.32,30.13,6,0,6,0.00
2013-10-27,48,45,41,46,44,40,98,96,91,30.19,29.88,10,0,10,0.16
2013-10-28,55,43,35,46,38,35,99,86,54,29.95,29.86,6,0,13,0.00
2013-10-29,57,43,34,40,36,32,94,77,43,30.04,29.93,5,0,5,0.01
2013-10-30,57,47,37,43,38,34,92,74,45,30.14,30.02,5,0,6,0.00
2013-10-31,55,50,47,53,48,42,97,94,76,30.25,30.09,5,0,5,0.17
2013-11-1,61,52,44,52,47,43,97,86,65,30.27,29.81,6,0,6,0.00
2013-11-2,56,48,44,50,43,38,96,84,66,29.93,29.55,42,6,42,0.44
2013-11-3,48,44,41,41,39,37,92,82,66,30.10,29.92,16,2,19,0.00
2013-11-4,49,42,35,42,37,32,95,82,56,30.16,30.04,6,0,6,0.03
2013-11-5,53,48,41,49,45,39,94,88,82,30.24,30.00,12,1,14,0.03
2013-11-6,50,45,40,49,42,38,98,90,81,30.31,30.02,4,0,4,0.17
2013-11-7,55,49,46,51,47,43,98,91,86,30.04,29.74,22,2,22,0.65
2013-11-8,52,47,45,44,42,41,90,84,69,30.15,30.03,12,2,12,0.01
2013-11-12,60,54,48,53,49,44,94,84,67,30.38,30.05,5,1,15,0.02
2013-11-13,54,49,47,49,46,45,98,90,73,30.43,30.35,4,0,7,0.14
2013-11-17,49,47,46,47,46,44,96,94,86,29.91,29.87,2,0,5,0.06
2013-11-18,54,50,47,49,46,46,95,88,81,29.90,29.58,7,1,14,0.09
2013-11-19,54,44,35,50,40,31,95,86,73,30.02,29.59,12,1,17,0.16
2013-11-20,40,32,26,31,28,24,96,86,64,30.49,30.02,6,0,9,0.01
2013-11-21,42,30,25,32,26,23,96,87,58,30.65,30.49,5,0,5,0.01
2013-11-22,44,32,24,33,27,22,95,85,60,30.63,30.45,5,0,5,0.00
2013-11-23,48,35,27,36,30,25,95,85,60,30.45,30.18,5,0,5,0.01
2013-11-24,51,37,29,40,33,28,95,86,64,30.25,30.15,4,0,4,0.00
2013-11-25,57,42,34,42,35,30,91,76,51,30.30,30.24,6,0,6,0.00
2013-11-26,54,42,33,41,36,30,89,79,51,30.26,30.07,7,0,7,0.00
2013-11-27,55,43,36,44,39,34,94,86,64,30.07,29.94,4,0,4,0.00
2013-11-28,56,42,35,43,36,32,93,83,60,30.18,30.01,8,0,8,0.00
2013-11-29,50,45,38,44,40,34,92,84,76,30.31,30.17,5,0,5,0.00
2013-11-30,50,48,43,47,44,41,96,86,72,30.34,30.10,5,0,12,0.25
2013-12-1,52,49,42,50,48,39,98,95,89,30.10,29.82,22,3,22,1.35
2013-12-2,42,36,33,40,34,31,97,92,79,30.04,29.86,19,1,19,0.08
2013-12-3,36,32,26,33,29,25,97,91,82,30.30,30.03,9,0,9,0.00
2013-12-4,35,27,23,29,24,21,96,88,71,30.33,30.27,7,0,7,0.01
2013-12-5,31,25,20,27,22,18,94,90,82,30.31,30.16,4,0,4,0.00
2013-12-6,28,26,21,22,17,13,83,70,58,30.16,30.05,11,1,11,0.00
2013-12-7,28,18,12,17,12,6,91,77,41,30.42,30.15,5,0,5,0.00
2013-12-8,31,21,14,17,14,10,89,75,53,30.59,30.42,6,0,6,0.00
2013-12-9,31,26,18,28,22,14,92,86,80,30.58,30.48,6,0,6,0.00
2013-12-10,40,34,30,35,32,28,96,91,82,30.50,30.39,4,0,4,0.00
2013-12-11,42,33,28,37,31,27,97,93,80,30.41,30.16,4,0,4,0.00
2013-12-12,49,38,28,41,35,27,98,89,61,30.16,30.01,17,1,17,0.14
2013-12-13,51,45,42,47,43,40,96,93,83,30.41,30.14,6,0,6,0.06
2013-12-14,50,44,39,45,41,37,94,90,81,30.43,30.30,9,0,9,0.00
2013-12-15,54,48,44,47,45,42,97,89,76,30.44,30.33,9,0,9,0.04
2013-12-16,45,40,33,43,39,32,97,95,90,30.48,30.25,6,0,6,0.00
2013-12-17,48,38,30,44,36,29,99,94,75,30.25,30.11,7,0,7,0.05
2013-12-18,46,39,31,43,37,30,98,91,71,30.14,30.00,18,1,18,0.01
2013-12-19,36,31,26,31,28,24,97,90,63,30.33,30.12,4,0,4,0.00
2013-12-20,46,38,30,43,35,28,95,90,85,30.20,29.75,11,1,11,0.06
2013-12-21,47,44,42,44,42,41,98,96,87,30.18,29.85,10,0,10,0.19
2013-12-22,49,46,42,47,44,41,100,95,91,30.31,30.17,6,0,6,0.09
2013-12-23,49,45,35,47,43,34,97,91,81,30.51,30.19,23,2,23,0.26
2013-12-24,46,40,35,39,37,34,96,88,72,30.60,30.50,5,0,5,0.00
2013-12-25,44,35,30,38,33,29,97,92,74,30.51,30.38,5,0,5,0.00
2013-12-26,49,37,30,42,35,29,98,93,79,30.40,30.19,4,0,4,0.01
2013-12-27,49,42,34,46,39,33,98,92,75,30.36,30.11,7,0,7,0.05
2013-12-28,43,40,34,41,39,32,98,95,89,30.50,30.35,6,0,6,0.00
2013-12-29,44,36,31,40,34,30,98,94,84,30.47,30.30,3,0,3,0.01
2013-12-30,49,40,34,46,38,33,98,94,85,30.31,30.11,18,1,18,0.00
2013-12-31,46,43,39,45,42,39,98,95,81,30.36,30.18,6,0,6,0.10
2014-1-1,46,40,34,43,38,33,98,95,85,30.38,30.22,3,0,5,0.02
2014-1-2,58,48,39,48,42,36,99,83,47,30.24,29.92,18,1,18,0.20